DW5735 Weather Reports


Display with metric or nautical units.
time (UTC)temp
F
wind
direction
speed
MPH
gust
MPH
rain 1hr
in
rain 24hr
in
rain mn
in
humidity
%
barometer
mb
20260831233828 73 251 0.0 4.0 0.00 0.00 0.00 58 1010.4
20260831233321 73 222 0.0 4.0 0.00 0.00 0.00 59 1010.5
20260831233105 72 241 0.0 4.0 0.00 0.00 0.00 60 1009.6
20260831232816 73 225 0.0 2.0 0.00 0.00 0.00 59 1010.5
20260831232318 73 225 0.0 3.0 0.00 0.00 0.00 61 1010.6
20260831231817 73 232 0.0 4.0 0.00 0.00 0.00 59 1010.6
20260831231604 72 247 0.0 5.0 0.00 0.00 0.00 57 1009.8
20260831231332 73 228 1.0 5.0 0.00 0.00 0.00 58 1010.7
20260831230829 73 217 2.0 5.0 0.00 0.00 0.00 56 1010.8
20260831230338 73 264 0.0 1.0 0.00 0.00 0.00 58 1010.8
20260831230055 72 229 0.0 4.0 0.00 0.00 0.00 57 1010.0
20260831225826 72 224 0.0 4.0 0.00 0.00 0.00 57 1010.9
20260831225340 72 226 1.0 5.0 0.00 0.00 0.00 59 1011.0
20260831224818 72 246 1.0 5.0 0.00 0.00 0.00 60 1011.1
20260831224607 72 225 1.0 5.0 0.00 0.00 0.00 60 1010.2
20260831224330 72 228 1.0 4.0 0.00 0.00 0.00 61 1011.1
20260831223858 72 217 1.0 4.0 0.00 0.00 0.00 59 1011.2
20260831223342 72 239 0.0 4.0 0.00 0.00 0.00 61 1011.3
20260831223056 71 239 0.0 4.0 0.00 0.00 0.00 63 1010.4
20260831222833 72 218 1.0 4.0 0.00 0.00 0.00 59 1011.4
20260831222327 71 235 0.0 4.0 0.00 0.00 0.00 61 1011.5
20260831221821 71 240 0.0 4.0 0.00 0.00 0.00 63 1011.4
20260831221619 70 246 1.0 4.0 0.00 0.00 0.00 64 1010.6
20260831221317 71 228 1.0 4.0 0.00 0.00 0.00 66 1011.5
20260831220821 71 228 0.0 1.0 0.00 0.00 0.00 64 1011.6
20260831220340 70 236 0.0 1.0 0.00 0.00 0.00 65 1011.7
20260831220011 70 248 0.0 0.0 0.00 0.00 0.00 64 1010.9
20260831215833 70 236 0.0 4.0 0.00 0.00 0.00 63 1011.8
20260831215331 70 232 0.0 4.0 0.00 0.00 0.00 64 1011.9
20260831214819 70 224 1.0 6.0 0.00 0.00 0.00 67 1012.0
20260831214552 69 245 0.0 6.0 0.00 0.00 0.00 66 1011.1
20260831214353 70 225 3.0 6.0 0.00 0.00 0.00 65 1012.1
20260831213817 69 239 0.0 5.0 0.00 0.00 0.00 67 1012.1
20260831213320 70 245 1.0 6.0 0.00 0.00 0.00 66 1012.2
20260831212844 69 239 4.0 6.0 0.00 0.00 0.00 64 1012.3
20260831212320 69 249 4.0 6.0 0.00 0.00 0.00 65 1012.4
20260831211824 69 241 3.0 5.0 0.00 0.00 0.00 65 1012.5
20260831211602 69 247 0.0 4.0 0.00 0.00 0.00 66 1011.7
20260831211350 69 249 0.0 4.0 0.00 0.00 0.00 66 1012.5
20260831210817 69 250 0.0 0.0 0.00 0.00 0.00 66 1012.6
20260831210327 69 246 0.0 0.0 0.00 0.00 0.00 63 1012.7
20260831210059 68 246 0.0 0.0 0.00 0.00 0.00 64 1011.9
20260831205839 69 250 0.0 0.0 0.00 0.00 0.00 67 1012.8
20260831205337 69 253 0.0 4.0 0.00 0.00 0.00 65 1012.8
20260831204817 69 225 0.0 5.0 0.00 0.00 0.00 64 1012.9
20260831204604 68 210 0.0 5.0 0.00 0.00 0.00 65 1012.1
20260831204328 68 210 1.0 5.0 0.00 0.00 0.00 68 1013.0
20260831203833 68 226 1.0 6.0 0.00 0.00 0.00 66 1013.1
20260831203338 68 226 5.0 6.0 0.00 0.00 0.00 67 1013.2
20260831203137 67 249 4.0 5.0 0.00 0.00 0.00 66 1012.4
20260831202839 68 250 0.0 6.0 0.00 0.00 0.00 67 1013.2
20260831202327 68 224 2.0 6.0 0.00 0.00 0.00 66 1013.3
20260831201822 68 231 2.0 7.0 0.00 0.00 0.00 68 1013.4
20260831201603 67 246 3.0 7.0 0.00 0.00 0.00 67 1012.6
20260831201324 68 221 5.0 8.0 0.00 0.00 0.00 68 1013.4
20260831200819 68 243 1.0 4.0 0.00 0.00 0.00 66 1013.5
20260831200318 68 231 0.0 0.0 0.00 0.00 0.00 66 1013.6
20260831200141 67 240 0.0 0.0 0.00 0.00 0.00 65 1012.9
20260831195821 68 222 0.0 0.0 0.00 0.04 0.00 65 1013.6
20260831195326 68 242 0.0 0.0 0.00 0.04 0.00 66 1013.7
20260831194834 67 248 0.0 0.0 0.00 0.04 0.00 66 1013.8
20260831194617 67 264 0.0 0.0 0.00 0.01 0.00 66 1013.0
20260831194323 67 246 0.0 0.0 0.00 0.04 0.00 66 1013.8
20260831193817 67 266 0.0 0.0 0.00 0.04 0.00 66 1013.9
20260831193339 67 257 0.0 0.0 0.00 0.04 0.00 65 1014.1
20260831193107 66 283 0.0 0.0 0.00 0.01 0.00 65 1013.3
20260831192825 67 267 0.0 0.0 0.00 0.04 0.00 66 1014.1
20260831192323 67 280 0.0 0.0 0.00 0.04 0.00 64 1014.3
20260831191821 67 255 0.0 0.0 0.00 0.04 0.00 65 1014.5
20260831191339 66 257 0.0 0.0 0.00 0.04 0.00 65 1014.5
20260831190822 66 264 0.0 0.0 0.00 0.04 0.00 64 1014.6
20260831190350 66 257 0.0 0.0 0.00 0.04 0.00 63 1014.7
20260831190055 66 250 0.0 0.0 0.00 0.01 0.00 65 1013.9
20260831185857 66 229 0.0 0.0 0.00 0.04 0.00 64 1014.7
20260831185327 66 249 0.0 0.0 0.00 0.04 0.00 64 1014.8
20260831184834 66 239 0.0 0.0 0.00 0.04 0.00 67 1014.9
20260831184603 65 246 0.0 0.0 0.00 0.01 0.00 68 1014.1
20260831184319 66 246 0.0 0.0 0.00 0.04 0.00 66 1015.0
20260831183828 66 271 0.0 0.0 0.00 0.04 0.00 66 1015.1
20260831183323 66 255 0.0 0.0 0.00 0.04 0.00 67 1015.1
20260831183101 65 255 0.0 0.0 0.00 0.01 0.00 66 1014.4
20260831182823 65 255 0.0 0.0 0.00 0.04 0.00 67 1015.3
20260831182330 65 261 0.0 0.0 0.00 0.04 0.00 67 1015.3
20260831181822 65 255 0.0 0.0 0.00 0.04 0.00 68 1015.4
20260831181605 64 261 0.0 0.0 0.00 0.01 0.00 67 1014.7
20260831181339 65 280 0.0 0.0 0.00 0.04 0.00 68 1015.5
20260831180833 65 250 0.0 0.0 0.00 0.04 0.00 66 1015.5
20260831180329 65 259 0.0 0.0 0.00 0.04 0.00 66 1015.6
20260831180113 65 250 0.0 0.0 0.00 0.01 0.00 66 1014.9
20260831175823 65 219 0.0 0.0 0.00 0.04 0.00 68 1015.6
20260831175322 64 229 0.0 0.0 0.00 0.04 0.00 68 1015.6
20260831174830 64 276 0.0 0.0 0.00 0.04 0.00 70 1015.7
20260831174557 63 328 0.0 0.0 0.00 0.01 0.00 70 1015.0
20260831174335 64 32 0.0 0.0 0.00 0.04 0.00 70 1015.8
20260831173837 63 21 0.0 0.0 0.00 0.04 0.00 72 1015.8
20260831173329 63 346 0.0 0.0 0.00 0.04 0.00 72 1015.8
20260831173022 63 21 0.0 0.0 0.00 0.01 0.00 71 1015.2
20260831172847 63 33 0.0 0.0 0.00 0.04 0.00 72 1015.9
20260831172331 63 29 0.0 0.0 0.00 0.04 0.00 72 1016.0
20260831171834 63 359 0.0 0.0 0.00 0.04 0.00 72 1016.0
20260831171558 62 352 0.0 0.0 0.00 0.01 0.00 73 1015.2
20260831171359 63 23 0.0 0.0 0.00 0.04 0.00 73 1016.0
20260831170823 62 26 0.0 0.0 0.00 0.04 0.00 73 1016.1
20260831170317 62 295 0.0 0.0 0.00 0.04 0.00 73 1016.1
20260831170113 62 6 0.0 0.0 0.00 0.01 0.00 75 1015.4
20260831165819 62 333 0.0 0.0 0.00 0.04 0.00 74 1016.1
20260831165347 62 323 0.0 0.0 0.00 0.04 0.00 77 1016.2
20260831164821 61 34 0.0 0.0 0.00 0.04 0.00 78 1016.3
20260831164607 61 36 0.0 0.0 0.00 0.01 0.00 78 1015.5
20260831164327 61 25 0.0 0.0 0.00 0.04 0.00 79 1016.3
20260831163839 61 41 0.0 0.0 0.00 0.04 0.00 80 1016.4
20260831163337 60 27 0.0 0.0 0.00 0.04 0.00 82 1016.5
20260831163016 59 29 0.0 0.0 0.00 0.01 0.00 81 1015.8
20260831162836 60 340 0.0 0.0 0.00 0.04 0.00 81 1016.5
20260831162340 60 20 0.0 0.0 0.00 0.04 0.00 81 1016.5
20260831161848 59 21 0.0 0.0 0.00 0.04 0.00 84 1016.5
20260831161511 59 31 0.0 0.0 0.00 0.01 0.00 84 1015.8
20260831161334 59 32 0.0 0.0 0.00 0.04 0.00 84 1016.6
20260831160820 59 29 0.0 0.0 0.00 0.04 0.00 84 1016.7
20260831160322 58 27 0.0 0.0 0.00 0.04 0.00 85 1016.7
20260831160101 58 66 0.0 0.0 0.00 0.01 0.00 85 1016.0
20260831155839 58 81 0.0 0.0 0.00 0.04 0.00 85 1016.8
20260831155354 58 49 0.0 0.0 0.00 0.04 0.00 85 1016.8
20260831154831 58 87 0.0 0.0 0.00 0.04 0.00 85 1016.7
20260831154503 57 77 0.0 0.0 0.00 0.01 0.00 85 1016.1
20260831154322 58 70 0.0 0.0 0.00 0.04 0.00 85 1016.7
20260831153827 58 56 0.0 0.0 0.00 0.04 0.00 85 1016.7
20260831153334 58 40 0.0 0.0 0.00 0.04 0.00 87 1016.7
20260831153100 57 39 0.0 6.0 0.00 0.01 0.00 87 1016.0
20260831152837 58 32 0.0 6.0 0.00 0.04 0.00 88 1016.6
20260831152333 57 32 1.0 8.0 0.00 0.04 0.00 88 1016.6
20260831151839 57 25 1.0 8.0 0.00 0.04 0.00 87 1016.6
20260831151543 57 37 5.0 8.0 0.00 0.01 0.00 87 1015.9
20260831151325 58 27 3.0 6.0 0.00 0.04 0.00 87 1016.6
20260831150820 58 46 1.0 3.0 0.00 0.04 0.00 87 1016.6
20260831150348 58 34 0.0 0.0 0.00 0.04 0.00 87 1016.6
20260831150011 57 34 0.0 0.0 0.00 0.01 0.00 86 1016.0
20260831145831 57 31 0.0 0.0 0.00 0.04 0.00 86 1016.6
20260831145355 57 44 0.0 0.0 0.00 0.04 0.00 88 1016.6
20260831144819 55 82 0.0 0.0 0.00 0.04 0.00 90 1016.5
20260831144614 54 82 0.0 0.0 0.00 0.01 0.00 90 1016.0
20260831144334 55 83 0.0 0.0 0.00 0.04 0.00 90 1016.7
20260831143842 54 96 0.0 0.0 0.00 0.04 0.00 90 1016.6
20260831143337 54 89 0.0 0.0 0.00 0.04 0.00 90 1016.6
20260831143102 54 91 0.0 0.0 0.00 0.01 0.00 90 1015.9
20260831142819 54 86 0.0 0.0 0.00 0.04 0.00 90 1016.6
20260831142328 54 101 0.0 0.0 0.00 0.04 0.00 90 1016.5
20260831141828 53 88 0.0 0.0 0.00 0.04 0.00 90 1016.5
20260831141611 53 87 0.0 0.0 0.00 0.01 0.00 90 1015.7
20260831141323 53 72 0.0 0.0 0.00 0.04 0.00 90 1016.4
20260831140825 53 47 0.0 0.0 0.00 0.04 0.00 90 1016.4
20260831140100 53 71 0.0 0.0 0.00 0.01 0.00 91 1015.7
20260831135858 53 58 0.0 0.0 0.00 0.04 0.00 91 1016.4
20260831135335 53 68 0.0 0.0 0.00 0.04 0.00 90 1016.4
20260831134821 53 77 0.0 0.0 0.00 0.04 0.00 90 1016.3
20260831134317 53 74 0.0 0.0 0.00 0.04 0.00 90 1016.3
20260831133848 53 62 0.0 0.0 0.00 0.04 0.00 90 1016.3
20260831133323 53 51 0.0 0.0 0.00 0.04 0.00 90 1016.4
20260831133058 53 59 0.0 0.0 0.00 0.01 0.00 90 1015.7
20260831132835 53 54 0.0 0.0 0.00 0.04 0.00 90 1016.4
20260831132329 53 71 0.0 0.0 0.00 0.04 0.00 90 1016.4
20260831131834 53 68 0.0 0.0 0.00 0.04 0.00 90 1016.4
20260831131607 53 68 0.0 0.0 0.00 0.01 0.00 90 1015.7
20260831131322 53 66 0.0 0.0 0.00 0.04 0.00 90 1016.5
20260831130817 53 86 0.0 0.0 0.00 0.04 0.00 90 1016.5
20260831130326 53 86 0.0 0.0 0.00 0.04 0.00 90 1016.6
20260831130058 53 87 0.0 0.0 0.00 0.01 0.00 90 1015.9
20260831125852 53 98 0.0 0.0 0.00 0.04 0.00 90 1016.5
20260831125327 53 79 0.0 0.0 0.00 0.04 0.00 90 1016.4
20260831124825 54 81 0.0 0.0 0.00 0.04 0.00 89 1016.4
20260831124513 53 58 0.0 0.0 0.00 0.01 0.00 90 1015.7
20260831124337 54 49 0.0 0.0 0.00 0.04 0.00 90 1016.4
20260831123843 54 82 0.0 0.0 0.00 0.04 0.00 90 1016.3
20260831123341 54 76 0.0 0.0 0.00 0.04 0.00 90 1016.4
20260831123105 54 98 0.0 0.0 0.00 0.01 0.00 90 1015.5
20260831122826 54 75 0.0 0.0 0.00 0.04 0.00 90 1016.3
20260831122321 54 65 0.0 0.0 0.00 0.04 0.00 90 1016.4
20260831121817 54 82 0.0 0.0 0.00 0.04 0.00 90 1016.5
20260831121600 54 88 0.0 0.0 0.00 0.01 0.00 90 1015.8
20260831121319 54 79 0.0 0.0 0.00 0.04 0.00 90 1016.6
20260831120817 54 91 0.0 0.0 0.00 0.04 0.00 90 1016.6
20260831120327 54 82 0.0 0.0 0.00 0.04 0.00 90 1016.7
20260831120139 54 84 0.0 0.0 0.00 0.01 0.00 90 1016.0
20260831115820 54 101 0.0 0.0 0.00 0.04 0.00 90 1016.6
20260831115329 55 75 0.0 0.0 0.00 0.04 0.00 90 1016.7
20260831114901 55 82 0.0 0.0 0.00 0.04 0.00 89 1016.7
20260831114557 54 81 0.0 0.0 0.00 0.01 0.00 89 1016.0
20260831114333 55 77 0.0 0.0 0.00 0.04 0.00 90 1016.7
20260831113821 55 95 0.0 0.0 0.00 0.04 0.00 90 1016.6
20260831113331 55 81 0.0 0.0 0.00 0.04 0.00 90 1016.7
20260831112839 55 88 0.0 0.0 0.00 0.04 0.00 89 1016.7
20260831112339 55 87 0.0 0.0 0.00 0.04 0.00 89 1016.7
20260831111825 55 86 0.0 0.0 0.00 0.04 0.00 89 1016.6
20260831111623 55 86 0.0 0.0 0.00 0.01 0.00 89 1015.9
20260831111332 55 86 0.0 0.0 0.00 0.04 0.00 89 1016.6
20260831110825 55 86 0.0 0.0 0.00 0.04 0.00 89 1016.7
20260831110329 55 88 0.0 0.0 0.00 0.04 0.00 89 1016.7
20260831110119 55 87 0.0 0.0 0.00 0.01 0.00 88 1015.9
20260831105827 56 86 0.0 0.0 0.00 0.04 0.00 88 1016.6
20260831105317 56 87 0.0 0.0 0.00 0.04 0.00 88 1016.6
20260831104841 56 89 0.0 0.0 0.00 0.04 0.00 88 1016.6
20260831104527 55 89 0.0 0.0 0.00 0.01 0.00 88 1015.9
20260831104346 56 89 0.0 0.0 0.00 0.04 0.00 88 1016.6
20260831103833 56 89 0.0 0.0 0.00 0.04 0.00 88 1016.5
20260831103349 56 89 0.0 0.0 0.00 0.04 0.00 88 1016.4
20260831103054 56 82 0.0 0.0 0.00 0.01 0.00 88 1015.6
20260831102837 57 75 0.0 0.0 0.00 0.04 0.00 87 1016.5
20260831102356 57 62 0.0 0.0 0.00 0.04 0.00 87 1016.4
20260831101834 57 51 0.0 0.0 0.00 0.04 0.00 87 1016.3
20260831101613 57 51 0.0 0.0 0.00 0.01 0.00 86 1015.5
20260831101334 57 51 0.0 0.0 0.00 0.04 0.00 86 1016.3
20260831100844 57 71 0.0 0.0 0.00 0.04 0.00 86 1016.3
20260831100320 57 54 0.0 0.0 0.00 0.04 0.00 87 1016.4
20260831100110 57 94 0.0 0.0 0.00 0.01 0.00 87 1015.5
20260831095845 57 72 0.0 0.0 0.00 0.04 0.00 86 1016.3
20260831095335 57 51 0.0 0.0 0.00 0.04 0.00 86 1016.2
20260831094841 57 50 0.0 0.0 0.00 0.04 0.00 85 1016.3
20260831094516 57 54 0.0 0.0 0.00 0.01 0.00 86 1015.5
20260831094339 57 56 0.0 0.0 0.00 0.04 0.00 86 1016.4
20260831093826 57 76 0.0 0.0 0.00 0.04 0.00 85 1016.4
20260831093321 57 91 0.0 0.0 0.00 0.04 0.00 84 1016.4
20260831093105 57 78 0.0 0.0 0.00 0.01 0.00 84 1015.6
20260831092833 58 89 0.0 0.0 0.00 0.04 0.00 84 1016.4
20260831092358 58 71 0.0 0.0 0.00 0.04 0.00 84 1016.4
20260831091827 58 56 0.0 0.0 0.00 0.04 0.00 83 1016.5
20260831091344 58 53 0.0 0.0 0.00 0.04 0.00 84 1016.5
20260831090832 58 82 0.0 0.0 0.00 0.04 0.00 84 1016.6
20260831090323 59 109 0.0 0.0 0.00 0.04 0.00 83 1016.6
20260831090112 59 108 0.0 0.0 0.00 0.01 0.00 83 1015.8
20260831085839 59 108 0.0 0.0 0.00 0.04 0.00 83 1016.5
20260831085328 60 110 0.0 0.0 0.00 0.04 0.00 82 1016.6
20260831084854 60 110 0.0 0.0 0.00 0.04 0.00 82 1016.5
20260831084608 59 110 0.0 0.0 0.00 0.01 0.00 82 1015.8
20260831084356 60 110 0.0 0.0 0.00 0.04 0.00 82 1016.6
20260831083844 60 108 0.0 0.0 0.00 0.04 0.00 82 1016.7
20260831083336 60 83 0.0 0.0 0.00 0.04 0.00 83 1016.6
20260831083110 60 82 0.0 0.0 0.00 0.01 0.00 82 1015.9
20260831082817 60 82 0.0 0.0 0.00 0.04 0.00 83 1016.6
20260831082339 61 101 0.0 0.0 0.00 0.04 0.00 81 1016.6
20260831081856 61 39 0.0 0.0 0.00 0.04 0.00 81 1016.6
20260831081609 60 346 0.0 0.0 0.00 0.01 0.00 81 1015.9
20260831081327 60 11 0.0 0.0 0.00 0.04 0.00 82 1016.7
20260831080845 60 336 0.0 0.0 0.00 0.04 0.00 84 1016.7
20260831080339 60 81 0.0 0.0 0.00 0.04 0.00 84 1016.7
20260831080125 59 81 0.0 0.0 0.00 0.01 0.00 84 1016.0
20260831075817 60 81 0.0 0.0 0.00 0.04 0.00 84 1016.7
20260831075331 60 79 0.0 0.0 0.00 0.04 0.00 83 1016.8
20260831074835 60 91 0.0 0.0 0.00 0.04 0.00 83 1016.8
20260831074602 59 96 0.0 0.0 0.00 0.01 0.00 83 1016.1
20260831074319 60 91 0.0 0.0 0.00 0.04 0.00 84 1016.8
20260831073819 60 77 0.0 0.0 0.00 0.04 0.00 83 1016.9
20260831073325 60 47 0.0 0.0 0.00 0.04 0.00 83 1016.9
20260831073104 59 46 0.0 0.0 0.00 0.01 0.00 83 1016.3
20260831072838 60 46 0.0 0.0 0.00 0.04 0.00 83 1016.9
20260831072344 60 47 0.0 0.0 0.00 0.04 0.00 83 1017.0
20260831071853 60 72 0.0 0.0 0.00 0.04 0.00 83 1016.9
20260831071616 59 72 0.0 0.0 0.00 0.01 0.00 83 1016.4
20260831071356 60 72 0.0 0.0 0.00 0.04 0.00 83 1017.0
20260831070832 60 83 0.0 0.0 0.00 0.04 0.00 83 1017.0
20260831070327 60 48 0.0 0.0 0.00 0.04 0.00 83 1017.0
20260831065825 60 76 0.0 0.0 0.00 0.04 0.01 82 1017.0
20260831065336 60 77 0.0 0.0 0.00 0.04 0.01 82 1017.0
20260831064818 60 74 0.0 0.0 0.00 0.04 0.01 82 1017.0
20260831064601 59 73 0.0 0.0 0.00 0.01 0.01 82 1016.4
20260831064317 60 74 0.0 0.0 0.00 0.04 0.01 82 1017.0
20260831063819 60 79 0.0 0.0 0.00 0.04 0.01 82 1017.0
20260831063327 60 86 0.0 0.0 0.00 0.04 0.01 81 1017.0
20260831063057 59 81 0.0 0.0 0.00 0.01 0.01 81 1016.3
20260831062825 59 82 0.0 0.0 0.00 0.04 0.01 81 1016.9
20260831062333 59 81 0.0 0.0 0.00 0.04 0.01 82 1016.9
20260831061831 59 82 0.0 0.0 0.00 0.04 0.01 82 1016.9
20260831061611 59 81 0.0 0.0 0.00 0.01 0.01 82 1016.3
20260831061320 59 74 0.0 0.0 0.00 0.04 0.01 82 1016.9
20260831060836 59 89 0.0 0.0 0.00 0.04 0.01 83 1016.9
20260831060335 59 88 0.0 0.0 0.00 0.04 0.01 83 1016.9
20260831060110 58 101 0.0 0.0 0.00 0.01 0.01 83 1016.3
20260831055341 59 77 0.0 0.0 0.00 0.04 0.01 82 1017.0
20260831054831 59 86 0.0 0.0 0.00 0.04 0.01 81 1016.9
20260831054601 58 86 0.0 0.0 0.00 0.01 0.01 82 1016.3
20260831054339 59 86 0.0 0.0 0.00 0.04 0.01 81 1017.0
20260831053828 59 86 0.0 0.0 0.00 0.04 0.01 81 1016.9
20260831053325 59 91 0.0 0.0 0.00 0.04 0.01 81 1016.9
20260831053005 58 91 0.0 0.0 0.00 0.01 0.01 81 1016.3
20260831052829 59 83 0.0 0.0 0.00 0.04 0.01 81 1016.9
20260831052329 59 91 0.0 0.0 0.00 0.04 0.01 80 1016.9
20260831051845 59 91 0.0 0.0 0.00 0.04 0.01 80 1016.9
20260831051518 59 88 0.0 0.0 0.00 0.01 0.01 80 1016.2
20260831051329 59 87 0.0 0.0 0.00 0.04 0.01 80 1016.9
20260831050832 60 90 0.0 0.0 0.00 0.04 0.01 79 1016.8
20260831050330 60 49 0.0 0.0 0.00 0.04 0.01 79 1016.8
20260831050129 59 50 0.0 0.0 0.00 0.01 0.01 79 1016.1
20260831045824 60 49 0.0 0.0 0.00 0.04 0.01 79 1016.7
20260831045335 60 48 0.0 0.0 0.00 0.04 0.01 78 1016.7
20260831044846 60 79 0.0 0.0 0.00 0.04 0.01 77 1016.7
20260831044600 60 80 0.0 0.0 0.00 0.01 0.01 77 1016.1
20260831044342 61 91 0.0 0.0 0.00 0.04 0.01 77 1016.7
20260831043825 61 97 0.0 0.0 0.00 0.04 0.01 76 1016.6
20260831043332 61 94 0.0 0.0 0.00 0.04 0.01 76 1016.6
20260831043111 61 85 0.0 0.0 0.00 0.01 0.01 77 1016.0
20260831042827 62 15 0.0 0.0 0.00 0.04 0.01 78 1016.6
20260831042336 61 46 0.0 0.0 0.00 0.04 0.01 74 1016.5
20260831041818 62 83 0.0 2.0 0.00 0.04 0.01 74 1016.6
20260831041620 61 67 0.0 2.0 0.00 0.01 0.01 74 1015.9
20260831041346 62 79 0.0 2.0 0.00 0.04 0.01 73 1016.5
20260831040828 62 70 0.0 0.0 0.00 0.04 0.01 73 1016.5
20260831040338 62 86 0.0 0.0 0.00 0.04 0.01 73 1016.4
20260831040110 61 46 0.0 0.0 0.00 0.01 0.01 73 1015.8
20260831035328 62 39 0.0 0.0 0.00 0.04 0.01 72 1016.4
20260831034832 62 46 0.0 5.0 0.00 0.04 0.01 73 1016.4
20260831034601 62 62 0.0 5.0 0.00 0.01 0.01 71 1015.6
20260831034336 63 82 1.0 6.0 0.00 0.04 0.01 71 1016.4
20260831033842 63 68 1.0 6.0 0.00 0.04 0.01 71 1016.4
20260831033340 63 80 0.0 9.0 0.00 0.04 0.01 72 1016.3
20260831033111 63 68 0.0 9.0 0.00 0.01 0.01 72 1015.5
20260831032828 63 46 1.0 9.0 0.00 0.04 0.01 70 1016.2
20260831032319 63 36 2.0 6.0 0.00 0.04 0.01 70 1016.1
20260831031819 63 25 0.0 6.0 0.00 0.04 0.01 71 1016.0
20260831031607 63 43 0.0 6.0 0.00 0.01 0.01 70 1015.3
20260831031330 64 44 0.0 6.0 0.00 0.04 0.01 71 1015.9
20260831030331 64 44 5.0 10.0 0.00 0.04 0.01 72 1015.7
20260831030053 64 17 4.0 9.0 0.00 0.01 0.01 74 1015.0
20260831025838 64 30 6.0 9.0 0.00 0.04 0.01 72 1015.6
20260831024835 64 23 6.0 9.0 0.00 0.04 0.01 69 1015.5
20260831024620 64 30 6.0 9.0 0.00 0.01 0.01 70 1014.9
20260831024332 64 34 4.0 7.0 0.00 0.04 0.01 70 1015.5
20260831023817 65 46 0.0 6.0 0.00 0.04 0.01 69 1015.6
20260831023341 65 29 0.0 1.0 0.00 0.04 0.01 69 1015.6
20260831023018 64 28 0.0 1.0 0.00 0.01 0.01 69 1014.9
20260831022843 65 47 0.0 1.0 0.00 0.04 0.01 68 1015.5
20260831022318 65 46 0.0 1.0 0.00 0.04 0.01 69 1015.6
20260831021831 65 27 0.0 3.0 0.00 0.04 0.01 69 1015.6
20260831021555 65 34 0.0 3.0 0.00 0.01 0.01 69 1015.0
20260831021333 65 42 0.0 0.0 0.00 0.04 0.01 69 1015.7
20260831020820 65 43 0.0 1.0 0.00 0.04 0.01 68 1015.7
20260831020322 65 58 0.0 2.0 0.00 0.04 0.01 68 1015.8
20260831020111 65 34 0.0 4.0 0.00 0.01 0.01 68 1015.1
20260831015828 66 34 0.0 4.0 0.00 0.04 0.01 68 1015.8
20260831015325 66 43 0.0 4.0 0.00 0.04 0.01 66 1015.8
20260831014827 66 50 0.0 0.0 0.00 0.04 0.01 66 1015.8
20260831014604 65 48 0.0 0.0 0.00 0.01 0.01 67 1015.1
20260831014322 66 63 0.0 0.0 0.00 0.04 0.01 66 1015.8
20260831013825 66 84 0.0 0.0 0.00 0.04 0.01 66 1015.8
20260831013328 66 87 0.0 0.0 0.00 0.04 0.01 65 1015.8
20260831013103 66 75 0.0 0.0 0.00 0.01 0.01 65 1015.2
20260831012856 66 96 0.0 0.0 0.00 0.04 0.01 65 1015.8
20260831012332 66 110 0.0 0.0 0.00 0.04 0.01 64 1015.8
20260831011818 66 106 0.0 0.0 0.00 0.04 0.01 64 1015.9
20260831011616 66 85 0.0 0.0 0.00 0.01 0.01 64 1015.3
20260831011344 66 64 0.0 0.0 0.00 0.04 0.01 64 1015.9
20260831010836 66 68 0.0 0.0 0.00 0.04 0.01 63 1015.9
20260831010319 66 75 0.0 0.0 0.00 0.04 0.01 63 1016.0
20260831010109 66 70 0.0 0.0 0.00 0.01 0.01 63 1015.3
20260831005833 66 62 0.0 0.0 0.00 0.04 0.01 63 1015.9
20260831005321 66 38 0.0 0.0 0.00 0.04 0.01 64 1015.8
20260831004834 66 60 0.0 0.0 0.00 0.04 0.01 63 1015.8
20260831004559 66 77 0.0 0.0 0.00 0.01 0.01 64 1015.2
20260831004317 66 56 0.0 0.0 0.00 0.04 0.01 64 1015.7
20260831003842 66 30 0.0 0.0 0.00 0.04 0.01 64 1015.7
20260831003341 66 27 0.0 0.0 0.00 0.04 0.01 64 1015.6
20260831003103 66 31 0.0 0.0 0.00 0.01 0.01 64 1015.1
20260831002816 66 5 0.0 0.0 0.00 0.04 0.01 65 1015.6
20260831002328 66 60 0.0 0.0 0.00 0.04 0.01 64 1015.6
20260831001900 66 99 0.0 0.0 0.00 0.04 0.01 64 1015.7
20260831001516 66 110 0.0 0.0 0.00 0.01 0.01 63 1015.1
20260831001333 66 79 0.0 0.0 0.00 0.04 0.01 63 1015.7
20260831000837 67 89 0.0 0.0 0.00 0.04 0.01 64 1015.8
20260831000322 67 57 0.0 0.0 0.00 0.04 0.01 62 1015.8
20260831000114 66 76 0.0 0.0 0.00 0.01 0.01 61 1015.2
20260830235834 67 77 0.0 0.0 0.00 0.04 0.01 61 1015.8
20260830235325 67 61 0.0 0.0 0.00 0.04 0.01 60 1015.8
20260830234836 67 256 0.0 0.0 0.00 0.04 0.01 58 1015.8
20260830234620 67 256 0.0 0.0 0.00 0.01 0.01 60 1015.3
20260830234321 67 257 0.0 0.0 0.00 0.04 0.01 60 1015.8